Billings, MT

6:59 PM MDT on June 02, 2015 (GMT -0600)
Downtown Billings | | Change Station
CLOSE
Current Station
Personal Weather Station
Location: Billings, MT
Elevation: 3127 ft
Nearby Weather Stations

Elev 3127 ft 45.78 °N, 108.50 °W | Updated 31 minutes ago

Partly Cloudy
Partly Cloudy
69.5 °F
Feels Like 69.5 °F
N
13.4
Wind Variable Wind from NE
Gusts 19.2 mph

Today
High -- | Low -- °F
--% Chance of Precip.
Yesterday
High -- | Low -- °F
Precip. -- in
5:27 AM 8:57 PM
Full, 100% visible
Pressure 29.82 in
Visibility 10.0 miles
Clouds Scattered Clouds 3500 ft
Dew Point 56 °F
Humidity 62%
Rainfall -999.00 in
Snow Depth Not available.
UV 1 out of 12
Pollen 6.40 out of 12
Air Quality Not available.
Flu Activity Sporadic
METAR KBIL 030053Z 07012KT 10SM SCT035 19/11 A2988 RMK AO2 SLP097 OCNL LTG DSNT W-NW CB DSNT W-N T01940111

More Conditions Fewer Conditions

Pressure 29.82 in
Visibility 10.0 miles
Clouds Scattered Clouds 3500 ft
Dew Point 56 °F
Humidity 62%
Rainfall -999.00 in
Snow Depth Not available.
UV 1 out of 12
Pollen 6.40 out of 12
Air Quality Not available.
Flu Activity Sporadic
METAR KBIL 030053Z 07012KT 10SM SCT035 19/11 A2988 RMK AO2 SLP097 OCNL LTG DSNT W-NW CB DSNT W-N T01940111

More Conditions Fewer Conditions

10-Day Weather Forecast

×

Almanac

Astronomy

Jun. 02, 2015 Rise Set
Actual Time
Civil Twilight
Nautical Twilight
Astronomical Twilight
Moon
Length of Visible Light
Length of Day
Tomorrow will be .
, % of the Moon is Illuminated

Today's Extremes

State Highs State Lows

Community

WunderPhotos

Upload Photos

1,826,077 photos uploaded!

WunderBlogs® & News

Nearby

Air Quality

  Air Quality AQ Index Pollutant
Not available.

Snow Depth

Station Depth Elevation

Earthquake Activity

City Distance Mag. Time & Date
Minimum magnitude displayed is 2.5.

Coastal Water Temperatures

Place Temperature

Stations

Nearby Weather Stations

Station Location Temp. Windchill Dew Point Humidity Wind Precip. Elev Updated Type